GFSSE_850_dewp_129.txt.gz
Dewpoint
3 6 9 9 9 9 9 8 8 8 7 7 7 8 9 10 10 10 6 6 7 9 9 10 11 11 10 10 11 11 12 12 11 11 11 10 10 11 10 10 10 10 11
-3 5 8 9 9 9 9 9 8 8 8 8 7 8 8 8 8 6 4 6 7 8 9 10 11 11 11 11 11 12 10 10 10 11 11 10 9 10 11 11 10 9 10
-1 4 8 9 9 10 10 9 9 8 9 8 7 6 6 6 6 4 4 6 7 8 8 9 10 10 9 9 9 9 9 9 10 10 11 10 9 10 10 7 8 11 11
-0 3 7 8 9 10 10 10 9 9 9 9 8 6 5 4 4 4 5 5 6 7 7 8 8 8 7 7 7 8 9 9 10 11 12 12 10 10 10 10 10 11 11
2 4 6 8 9 9 9 10 10 9 9 9 9 6 4 4 4 5 5 5 6 6 6 5 5 5 6 7 7 7 8 9 10 9 9 9 8 9 9 10 10 11 11
3 4 5 7 8 9 9 10 10 10 9 9 9 7 5 4 4 5 6 5 6 6 5 4 3 4 5 6 6 7 7 8 9 9 9 9 8 10 10 9 10 11 11
4 3 3 6 7 8 9 10 10 10 10 9 9 9 6 5 5 6 7 6 6 5 4 3 3 3 4 6 7 7 7 8 8 8 9 9 10 9 9 10 10 10 10
2 3 3 4 4 6 8 9 10 10 10 10 9 10 8 6 6 6 7 7 7 5 4 4 5 5 4 5 6 7 8 8 8 9 8 8 10 9 9 10 10 10 11
4 3 4 3 4 6 7 9 10 10 10 10 9 10 10 8 7 6 7 7 7 7 5 7 6 5 5 5 6 7 7 8 8 8 8 8 9 10 9 10 10 11 11
6 3 2 2 4 5 5 7 9 10 10 9 9 10 10 9 8 7 7 8 8 8 7 7 7 7 7 7 6 7 8 8 7 8 9 10 9 9 9 9 11 11 11
5 2 1 1 1 1 2 5 8 10 9 9 8 10 10 10 10 9 7 8 9 9 8 8 7 7 8 8 7 7 8 8 8 8 9 9 8 9 9 8 9 10 10
3 -1 -0 -1 -3 -1 2 5 8 9 9 8 9 10 10 10 10 10 9 8 9 9 9 9 8 8 8 8 8 7 7 8 8 8 8 9 8 7 8 10 9 9 10
5 3 1 -2 -3 -2 2 5 6 7 7 8 9 10 10 10 11 11 10 10 10 10 10 10 9 9 8 8 8 7 8 8 9 9 8 9 9 7 8 9 6 8 9
4 2 2 1 -3 -3 1 4 4 5 7 8 9 10 10 11 10 10 10 9 10 10 10 10 10 9 9 9 9 8 8 8 9 8 8 8 8 8 7 10 6 8 8
5 2 2 1 0 -1 1 3 3 4 6 7 8 8 9 9 9 9 9 9 9 9 10 10 10 10 10 10 9 9 9 9 9 8 8 8 8 8 8 10 8 8 7
3 2 1 -1 -1 -2 -1 1 2 4 5 6 6 7 7 7 7 7 7 8 9 9 9 10 9 10 10 10 10 10 10 10 10 9 8 9 8 9 8 9 10 9 8
-4 3 0 -0 -2 -2 -2 -1 0 1 3 4 4 4 4 5 5 5 5 7 8 9 10 10 10 10 10 11 11 11 10 10 10 10 9 9 9 8 8 9 9 11 10
-4 1 3 -1 -1 -1 -2 -2 -1 -1 -3 -1 -1 1 1 2 1 2 3 5 6 8 9 10 10 10 10 11 11 11 11 11 11 11 10 10 9 9 9 9 9 9 10
-2 -3 1 3 -1 -2 -1 -2 -3 -3 -5 -6 -5 -4 -3 -1 -1 -0 2 4 6 8 8 10 10 11 10 11 11 12 11 11 11 11 10 10 10 9 9 9 9 9 9
-1 -7 -2 6 -0 -1 -0 -1 0 -2 -2 -4 -5 -4 -4 -3 -1 0 2 3 5 7 8 9 10 11 11 11 12 11 11 10 11 11 10 10 9 9 10 10 9 9 9
-5 -2 -4 7 8 1 2 0 -0 -3 -2 -1 -2 -2 -2 -1 -1 1 3 4 4 4 5 8 9 11 12 12 12 11 11 10 10 9 9 9 9 8 8 9 9 9 9
-7 2 -2 1 9 8 2 -1 -0 -1 -1 -1 -0 -1 -0 1 2 2 2 4 5 6 7 8 10 11 12 11 12 11 12 10 10 8 9 8 8 8 8 8 8 9 9
-9 -5 -2 -2 2 9 8 7 6 6 6 4 3 2 1 2 3 5 5 8 9 10 9 8 10 12 11 11 11 11 11 10 9 8 7 7 7 8 7 7 7 9 9
-8 -6 -5 2 7 10 10 10 9 8 9 8 8 7 6 4 6 10 10 11 11 10 11 10 11 12 11 11 11 11 11 9 9 9 8 7 6 6 6 6 7 9 9
-4 -4 -4 4 11 11 11 11 11 11 11 11 11 12 11 9 10 11 10 13 11 9 10 11 12 12 12 12 10 10 10 11 11 9 10 9 8 8 7 7 6 8 9
3 1 -3 -1 10 12 13 12 13 12 12 13 12 11 11 11 11 10 11 7 8 11 10 9 10 11 12 12 10 9 9 10 11 11 10 10 9 9 7 5 7 8 7

GFSSE_850_dewp_132.txt.gz
Dewpoint
11 4 8 11 10 9 8 8 9 10 11 12 12 12 11 11 10 8 5 6 8 9 10 10 10 11 11 11 11 11 12 11 10 11 10 10 10 11 10 11 12 11 11
11 4 7 10 9 9 8 8 9 9 10 10 10 11 11 11 10 7 4 6 7 8 9 10 10 10 10 11 11 12 11 10 10 11 11 9 9 8 8 11 11 8 10
12 2 7 8 9 9 9 8 8 8 8 8 9 10 11 10 9 5 4 5 6 7 8 10 11 10 10 10 11 10 9 9 10 10 10 14 13 10 10 8 7 10 11
12 3 7 8 9 9 9 9 8 8 8 8 9 9 9 8 6 4 5 6 6 7 8 9 10 9 8 9 8 8 9 9 10 10 13 13 13 10 8 9 11 11 11
12 7 7 8 9 9 9 9 9 9 9 8 8 7 7 6 4 5 4 5 6 7 7 7 7 7 7 7 7 8 8 9 10 12 13 14 13 10 9 10 11 11 11
11 10 7 8 8 9 9 10 10 9 9 9 8 6 6 5 4 5 5 5 5 5 6 5 4 5 6 7 7 7 8 9 10 12 12 11 13 11 9 10 11 11 11
12 10 7 8 9 9 9 10 10 10 9 9 8 6 5 4 5 5 5 5 5 5 4 3 3 4 5 6 6 6 7 8 12 11 12 13 12 9 9 10 10 11 11
15 12 9 9 10 9 9 10 10 10 9 9 9 7 5 5 5 6 6 6 6 5 3 3 3 4 5 6 6 6 7 8 12 12 12 12 10 9 9 10 10 10 11
13 12 10 10 11 10 9 10 10 10 10 9 9 8 6 6 6 6 7 6 6 5 3 4 5 5 5 6 6 7 7 8 12 12 11 12 10 9 8 9 10 11 11
9 10 10 11 11 10 10 10 10 10 10 10 9 9 7 6 6 7 7 7 7 6 5 6 6 6 6 6 7 7 7 7 11 12 11 12 9 10 9 9 10 11 11
13 12 14 14 11 10 10 10 10 10 11 10 10 9 8 7 8 8 8 8 8 7 7 7 7 7 7 7 7 7 8 11 11 11 11 10 8 9 10 9 9 10 11
15 15 15 14 12 14 14 11 10 11 11 11 10 10 9 12 13 12 11 9 9 8 8 7 7 8 8 9 8 8 10 11 11 11 11 9 9 8 9 9 8 8 8
13 14 14 15 14 14 14 13 14 13 13 12 11 10 13 14 14 14 13 11 10 9 9 9 8 8 11 13 12 12 12 11 11 11 11 8 8 8 8 9 9 8 5
8 13 14 14 13 14 13 13 10 13 14 14 14 12 14 14 14 14 15 14 14 12 13 12 12 12 13 12 12 12 10 12 11 11 11 8 9 8 8 8 9 6 9
3 11 13 13 13 13 13 13 13 13 13 14 14 12 14 14 14 14 15 15 14 14 14 13 13 13 13 12 11 12 12 12 12 11 11 9 8 8 8 8 10 8 9
1 7 12 13 12 12 13 13 13 9 13 13 13 8 9 14 14 14 14 15 15 14 14 13 13 13 13 13 12 12 12 12 12 12 11 11 9 8 9 8 10 10 8
-3 6 8 13 9 5 2 12 12 12 7 6 7 7 8 10 13 13 12 14 14 13 14 14 14 14 13 12 12 13 12 12 12 12 12 11 11 9 8 8 8 11 11
-7 -4 7 10 13 3 1 9 13 13 6 6 6 7 7 8 11 9 10 10 13 13 12 13 13 13 13 13 12 12 12 12 12 12 12 12 12 12 11 8 8 9 9
-12 -6 1 9 12 9 1 2 12 13 8 6 6 5 6 6 8 7 7 7 12 9 9 11 13 13 13 13 13 13 12 11 11 12 12 12 12 11 12 11 9 9 9
-13 -11 -4 6 12 10 4 1 8 13 12 13 10 5 5 5 4 5 6 5 7 12 10 9 10 12 12 12 13 12 11 11 11 10 12 11 11 11 11 11 11 10 9
-8 -9 -7 0 11 13 11 5 4 7 5 11 11 5 5 1 5 5 4 3 5 12 13 7 9 9 12 12 12 12 11 11 11 10 10 12 11 11 11 11 11 11 10
-7 -7 -8 -2 10 12 12 8 0 -2 2 4 5 2 0 -0 2 3 3 10 8 12 12 8 9 10 12 12 12 12 12 11 11 10 11 11 11 11 10 9 11 11 10
-7 -6 -7 -6 7 12 12 12 7 6 11 11 11 10 11 6 0 2 4 11 12 10 11 8 9 11 12 12 12 11 12 10 10 11 10 11 11 9 9 11 11 10 9
-8 -7 -7 -5 4 11 12 12 10 5 9 9 8 11 12 11 10 6 6 10 9 7 8 9 10 10 12 12 12 11 12 11 10 10 11 9 11 9 5 6 6 9 7
-9 -8 -8 -5 2 10 13 12 12 7 6 10 11 12 12 9 11 9 9 11 9 10 11 12 12 12 12 12 12 11 11 11 10 10 10 11 11 9 9 11 11 9 6
3 2 1 0 2 9 12 13 13 12 12 12 13 13 13 12 9 7 6 7 11 12 9 8 7 10 11 11 12 12 11 11 11 11 11 10 11 11 11 11 11 10 5

GFSSE_850_dewp_135.txt.gz
Dewpoint
9 10 7 7 10 10 8 7 7 9 11 12 12 11 10 10 8 6 6 7 8 9 9 10 11 11 11 11 11 10 11 11 10 10 10 10 9 8 10 11 13 11 11
10 11 7 8 10 9 8 7 7 9 11 12 12 11 10 10 9 6 6 7 8 9 10 10 11 11 11 11 11 11 11 9 10 10 10 9 8 10 10 10 10 7 10
10 11 8 10 10 9 8 7 7 8 11 12 12 11 11 11 9 6 6 7 8 9 10 10 10 10 11 11 11 10 10 9 10 10 11 13 10 8 9 9 8 8 11
11 13 8 10 9 8 8 8 7 8 11 11 11 10 11 11 8 5 6 7 8 8 9 10 11 10 10 10 10 9 8 9 9 10 13 14 13 10 9 7 9 11 11
13 16 9 9 9 9 9 8 8 8 9 9 10 10 11 11 7 5 6 6 7 8 8 10 10 9 8 8 8 8 8 9 10 13 13 12 13 10 8 10 11 11 12
14 15 12 9 9 9 9 9 8 8 8 9 9 10 10 10 5 5 6 6 7 7 7 8 7 6 6 7 7 7 7 7 10 12 14 13 13 9 10 11 11 11 12
14 15 15 10 10 9 10 9 9 9 8 9 9 9 9 8 4 5 5 5 6 6 5 5 4 5 6 6 6 6 6 8 11 10 11 12 12 9 10 11 11 11 11
15 16 15 11 10 10 10 9 9 9 9 9 9 8 7 6 4 5 4 5 5 6 4 3 3 4 5 5 6 6 7 7 11 10 11 12 10 9 9 10 10 11 10
16 16 16 11 11 11 11 10 10 10 9 9 9 8 6 5 5 5 5 5 6 5 4 3 4 5 5 5 6 6 7 10 10 11 11 12 8 9 9 10 10 10 10
16 16 16 14 12 11 11 11 10 10 10 9 9 8 6 5 6 6 7 6 6 6 4 4 5 6 6 5 5 6 6 7 11 11 11 10 10 9 9 9 9 10 11
15 16 16 16 15 14 13 11 11 11 10 10 9 9 7 7 7 7 8 7 7 6 5 6 7 6 7 7 6 7 6 10 11 11 11 11 8 10 9 9 9 10 11
9 15 15 15 16 15 15 14 11 11 11 10 10 9 8 10 11 12 10 8 8 7 7 7 7 7 8 9 8 7 6 12 10 11 11 11 8 8 9 9 9 10 10
0 11 15 15 15 15 14 14 14 14 12 11 11 10 11 14 14 14 13 10 9 8 8 8 8 8 8 13 12 11 12 12 11 10 11 9 8 8 8 9 9 9 8
-6 2 13 15 15 15 14 13 13 13 14 14 14 13 14 14 14 14 14 14 13 12 13 11 12 12 12 12 13 12 12 11 11 10 11 11 7 8 7 8 9 9 8
-8 -5 8 14 14 15 15 13 13 12 13 13 14 14 13 14 14 14 14 14 14 13 13 13 12 12 12 12 12 11 12 12 12 11 11 10 8 8 7 7 8 9 6
-9 -6 -1 12 14 15 14 13 13 13 13 13 13 14 13 14 14 14 14 13 14 13 13 12 12 11 11 11 12 11 12 11 11 11 10 10 10 8 8 8 7 9 9
-10 -7 -3 9 13 14 14 14 13 13 13 13 13 13 13 14 14 13 14 13 14 13 13 13 12 12 12 11 11 11 11 11 11 11 11 10 10 10 9 8 8 8 11
-12 -11 -7 -1 10 14 14 14 13 13 13 13 13 13 14 13 14 14 14 13 14 13 13 13 12 12 12 11 11 11 11 10 11 11 11 11 10 10 11 10 8 8 9
-10 -11 -10 -7 2 12 13 14 13 13 13 13 13 13 14 14 13 14 14 14 13 14 14 14 12 12 12 12 11 11 11 11 11 11 11 11 11 11 11 10 11 9 8
-9 -9 -10 -10 -6 9 12 13 13 13 13 13 13 13 14 13 13 14 13 14 13 14 14 13 12 12 12 12 12 12 12 12 11 11 11 11 12 11 11 11 10 11 9
-7 -7 -7 -8 -9 -1 12 13 13 14 13 12 13 12 13 11 14 13 14 14 13 14 13 13 13 13 13 13 12 12 12 13 12 12 11 10 11 11 11 11 11 11 10
1 -5 -7 -6 -7 -7 10 12 12 13 13 10 10 13 13 13 11 14 13 14 10 12 13 13 13 13 13 13 13 13 12 12 12 10 11 11 11 11 10 11 11 11 11
3 1 -5 -6 -5 -7 -4 12 12 13 13 12 11 12 13 13 12 9 10 13 13 11 12 13 13 13 12 13 13 12 12 10 9 12 11 12 11 11 11 11 11 11 10
3 2 -1 -6 -6 -5 -6 10 12 13 13 12 10 7 12 10 7 2 9 12 12 13 12 13 13 13 13 12 12 12 11 11 11 10 12 10 11 11 11 8 11 10 8
3 4 2 -4 -6 -5 -5 3 11 12 12 11 10 6 10 12 11 5 3 6 12 14 12 12 13 13 12 12 12 11 12 12 11 11 10 11 12 11 11 11 11 11 10
1 3 3 3 -6 -6 -6 0 11 11 12 11 11 10 11 12 12 12 10 9 12 12 12 10 9 10 8 9 10 10 12 12 12 11 11 11 11 11 10 10 11 10 10

GFSSE_850_dewp_138.txt.gz
Dewpoint
10 7 0 5 6 8 7 6 5 7 11 12 11 10 9 8 6 4 5 7 8 9 9 10 10 10 11 11 11 10 11 11 10 10 10 10 10 11 11 12 12 11 10
12 9 0 5 7 8 7 6 5 7 10 12 12 11 10 8 7 4 5 7 9 9 10 10 10 10 11 11 10 11 11 9 9 9 9 8 9 10 11 11 10 8 11
14 10 8 6 8 8 7 6 6 6 9 11 12 11 10 9 7 4 6 8 9 10 10 10 10 10 10 10 11 10 10 10 10 9 12 10 9 9 8 9 8 8 11
13 12 11 7 10 9 7 7 6 6 8 10 12 11 10 9 7 4 6 7 9 9 10 10 10 11 10 10 11 9 8 9 10 12 13 13 10 9 10 7 8 11 11
14 14 12 9 11 9 8 7 7 6 7 9 10 9 9 10 7 5 6 7 8 9 10 10 10 9 9 9 7 7 7 9 12 12 11 12 12 9 7 9 10 11 11
14 15 13 11 11 9 8 8 7 7 7 7 8 9 9 10 7 5 6 6 7 8 8 9 8 6 6 6 6 6 6 10 12 12 7 13 12 9 9 10 11 11 12
14 16 15 12 11 9 9 8 8 7 8 8 7 9 9 9 7 4 6 6 6 6 7 7 6 4 5 6 6 5 5 11 12 12 13 11 12 9 10 10 11 11 11
15 15 15 14 11 10 10 9 9 8 8 8 8 8 9 8 6 4 5 6 7 6 6 5 5 4 5 5 5 5 4 10 12 12 11 11 11 8 9 10 11 11 10
16 16 16 15 12 11 10 10 9 9 9 9 9 8 8 8 6 5 5 6 6 7 6 4 4 4 5 5 5 5 4 11 11 11 10 12 8 8 9 9 10 10 10
13 16 16 13 13 11 11 10 10 10 9 9 9 9 8 8 7 6 6 6 6 6 6 4 5 5 5 5 5 5 5 10 11 11 10 11 9 8 8 9 9 10 10
12 15 16 14 12 11 11 11 11 10 10 10 10 9 9 8 6 7 7 7 7 7 6 5 6 6 6 6 5 5 5 11 11 10 11 11 9 8 9 9 9 10 11
-1 11 15 16 15 13 12 12 11 11 10 10 10 10 10 8 6 6 7 7 7 7 6 6 7 6 7 7 6 6 8 11 11 11 11 11 9 7 9 8 8 10 10
-12 -6 12 15 16 15 14 15 12 11 11 10 10 10 10 8 7 8 8 8 7 7 7 6 7 7 7 10 10 9 7 12 11 9 10 10 9 7 7 9 8 9 10
-12 -10 -3 13 14 14 15 15 15 12 11 11 10 10 10 9 10 11 12 10 9 8 8 7 8 7 8 11 12 11 10 11 11 11 9 9 10 7 7 7 8 8 9
-11 -10 -9 1 13 14 15 15 15 14 12 12 11 10 10 10 11 13 13 13 11 9 9 8 9 9 10 11 12 11 11 10 11 11 11 11 10 8 7 7 7 8 8
-11 -11 -8 -7 9 13 14 13 14 14 14 13 12 12 12 12 12 13 13 13 13 12 12 11 12 12 10 11 10 11 11 10 10 10 10 9 9 9 8 8 7 7 8
-10 -9 -11 -9 -5 14 13 12 14 14 14 13 13 13 11 13 13 13 13 13 13 14 13 12 12 13 12 10 11 10 10 11 10 10 10 10 10 9 10 9 8 7 7
-5 -10 -10 -10 -10 4 13 13 13 13 13 14 13 14 14 12 12 13 13 13 13 13 12 13 12 11 11 11 11 10 10 10 11 10 10 10 10 9 9 10 10 9 8
-2 -0 -9 -8 -10 -9 3 12 11 14 14 13 14 14 14 14 12 13 13 13 13 13 12 13 12 12 12 12 11 11 11 10 10 10 10 10 10 10 10 10 10 10 10
-0 2 3 -6 -8 -7 -9 9 12 10 13 13 13 13 14 14 12 12 14 13 13 13 13 13 12 13 13 11 11 11 11 11 11 11 11 10 10 10 11 10 10 11 10
0 3 4 4 -0 -7 -7 -4 10 12 12 13 13 14 14 14 13 12 14 13 13 12 13 13 12 12 13 12 12 11 11 11 11 11 11 11 10 9 11 10 11 10 11
-1 2 3 4 3 2 -7 -5 7 11 12 12 14 13 12 14 12 12 13 13 13 11 14 14 11 12 13 12 12 11 12 11 11 11 10 11 11 11 10 10 11 10 10
-1 1 2 2 4 4 -4 -6 -6 9 11 11 12 14 12 12 12 11 13 14 13 11 12 14 12 11 12 13 12 11 11 11 11 10 11 11 10 11 11 10 10 11 10
-2 -0 1 1 4 4 -2 -5 -5 -4 11 11 11 14 14 12 10 12 11 14 13 13 11 13 13 13 12 11 12 12 12 11 10 11 11 11 10 11 11 10 10 10 9
-3 -1 1 1 1 3 3 -3 -5 -4 -2 11 10 13 13 14 13 10 11 12 14 13 11 10 11 12 13 10 11 11 10 10 10 11 10 10 11 10 9 9 9 8 9
-4 -3 -0 2 1 1 2 0 -2 -3 -4 5 11 12 12 14 14 13 12 11 14 13 13 11 9 11 10 8 8 9 10 7 7 10 10 9 10 10 10 10 10 9 9

GFSSE_850_dewp_144.txt.gz
Dewpoint
10 6 6 7 5 3 2 1 1 3 7 9 9 8 7 3 3 4 5 6 6 3 2 5 7 8 10 11 11 10 11 10 10 10 10 10 10 11 10 10 10 10 10
9 4 5 7 7 6 4 2 1 3 6 8 9 9 7 4 2 3 6 7 7 7 6 7 9 10 11 11 10 11 10 10 10 11 9 9 10 11 10 10 10 11 11
10 8 6 7 8 7 6 4 2 3 5 7 9 9 7 5 2 2 5 7 8 8 9 10 10 11 11 10 11 10 10 10 10 9 9 10 10 10 9 8 9 10 10
9 12 8 8 9 8 7 5 3 4 6 8 8 9 7 5 2 2 4 6 8 8 8 9 9 10 10 10 9 10 10 10 11 11 11 10 9 8 8 6 9 11 11
12 12 12 9 10 9 8 6 5 5 7 7 8 8 7 5 3 3 3 5 6 7 8 9 9 9 10 9 8 9 10 11 12 10 11 10 9 8 6 9 10 11 11
15 15 13 12 11 10 8 7 6 6 7 8 8 8 6 5 3 2 3 4 5 6 8 9 7 7 8 7 8 9 10 12 12 11 10 12 10 9 8 9 10 11 11
13 15 15 15 13 11 9 7 7 7 7 8 9 8 6 6 4 2 3 5 5 6 7 7 5 5 6 7 8 10 12 11 10 11 11 10 11 9 8 9 10 11 11
9 10 14 15 13 12 9 8 8 8 8 8 9 8 7 7 5 3 3 4 5 5 5 4 4 4 6 6 6 10 11 10 9 9 11 10 10 8 8 9 10 11 11
9 10 13 14 15 13 11 9 9 8 8 9 9 9 8 8 6 4 3 4 5 5 5 3 2 4 5 6 6 10 11 11 9 9 10 10 8 8 9 9 9 10 10
4 3 8 11 12 12 12 10 9 9 8 9 9 9 9 9 8 6 4 4 4 5 5 3 2 4 4 5 5 8 11 11 10 10 10 9 9 8 8 8 8 9 10
-12 -8 -0 11 12 13 12 12 9 9 9 9 9 10 10 10 9 8 5 4 5 5 5 3 3 4 5 4 4 7 11 11 10 9 11 10 9 8 7 7 7 8 9
-11 -9 -2 -2 11 15 15 12 11 10 9 9 9 10 10 10 9 8 6 5 5 6 6 4 3 5 5 5 4 7 11 10 10 11 11 10 10 7 8 8 7 8 10
-6 -7 -8 0 8 6 11 14 12 10 10 10 9 9 10 10 10 10 8 6 6 6 6 5 4 5 6 6 6 5 11 10 10 10 10 10 10 8 7 8 8 8 10
-8 -6 -5 -5 -5 -4 10 12 13 12 11 10 10 9 10 11 11 10 9 6 6 6 6 6 5 6 6 7 7 6 8 11 10 11 11 10 9 9 9 6 7 8 9
-7 -6 -6 -6 -7 -6 -4 12 13 10 12 11 10 10 10 10 11 10 9 7 6 6 7 6 6 6 7 7 9 9 8 11 10 9 10 11 9 10 9 7 7 7 8
-7 -6 -6 -6 -6 -7 -6 -4 -1 12 11 14 12 11 10 10 10 11 10 8 7 6 7 7 6 6 7 7 8 9 10 10 9 9 9 10 9 9 9 9 8 8 7
-8 -9 -9 -6 -6 -6 -7 -7 -6 10 14 13 14 13 13 12 10 10 11 10 7 7 7 8 7 7 7 8 8 9 9 9 8 9 9 8 9 8 8 8 9 9 8
-7 -9 -9 -10 -10 -9 -6 -7 -8 -6 4 13 13 13 13 13 12 10 10 11 9 8 9 9 8 8 9 9 9 9 9 9 9 9 8 9 9 8 9 8 8 9 9
-6 -7 -8 -7 -7 -8 -9 -7 -5 -8 -6 -4 10 12 13 11 13 12 10 11 10 9 10 12 11 9 9 10 9 9 10 9 9 9 9 9 9 9 9 9 9 9 9
-5 -5 -5 -5 -6 -6 -6 -6 -4 -4 -7 -6 -4 4 10 13 13 13 11 10 10 11 11 13 12 10 10 9 11 10 9 9 9 9 9 10 9 9 9 9 9 9 9
-5 -5 -4 -4 -5 -5 -5 -4 -4 -1 -3 -5 -5 -7 2 10 12 13 13 11 11 11 12 12 13 12 11 10 11 10 10 9 10 10 9 9 9 9 9 9 9 9 10
-4 -4 -4 -4 -4 -4 -4 -2 -0 0 0 -1 -3 -3 -5 0 10 11 13 13 11 12 13 13 13 13 12 12 11 10 12 11 9 10 10 9 10 10 10 10 10 9 10
-4 -4 -4 -4 -4 -4 -4 -2 -1 1 1 1 2 2 -1 0 2 9 12 13 11 12 13 13 13 13 12 12 11 11 11 11 11 10 10 10 10 10 10 10 10 10 9
-4 -4 -5 -5 -5 -4 -3 -1 -0 1 2 3 3 2 -0 -2 -4 3 9 12 14 13 12 13 12 13 13 12 12 12 11 10 10 10 10 10 10 10 10 10 11 11 10
-5 -5 -5 -5 -5 -4 -3 -2 -1 0 1 2 3 3 2 -1 -3 -3 0 4 10 8 12 12 13 13 13 12 11 12 12 11 10 9 9 8 9 9 10 10 10 10 9
-4 -4 -5 -5 -5 -4 -3 -2 -1 -0 0 2 2 3 2 1 0 -3 -2 4 8 10 14 13 12 13 13 13 11 12 12 12 11 10 9 9 8 9 9 9 9 9 10

GFSSE_850_dewp_147.txt.gz
Dewpoint
12 9 9 8 8 6 5 2 1 3 6 7 7 7 4 3 5 9 9 6 4 3 3 5 7 7 9 10 10 10 10 10 11 10 10 10 10 10 9 10 10 10 11
6 7 8 8 7 7 6 4 3 4 7 8 7 8 4 2 3 5 6 6 5 3 4 6 7 10 11 10 10 10 9 10 10 10 9 10 11 10 9 9 10 10 11
9 6 7 8 7 7 7 5 4 5 7 9 8 8 4 2 2 4 6 7 7 7 7 9 10 10 10 10 10 10 10 10 10 9 9 10 10 10 8 8 10 10 10
12 10 8 8 8 8 7 6 5 6 8 9 9 9 5 3 2 3 5 7 7 8 9 9 10 10 10 10 9 9 9 9 9 10 10 10 9 8 9 7 10 10 10
13 12 10 9 9 9 8 6 6 7 9 9 10 9 7 4 2 3 5 6 7 7 8 9 10 10 10 9 8 9 9 10 11 11 11 10 9 8 7 9 10 10 10
13 14 13 11 10 10 9 7 7 8 9 10 10 10 8 6 3 3 4 5 5 6 7 8 9 9 8 7 6 8 9 10 11 8 11 10 10 9 8 10 10 11 11
12 13 15 15 14 12 11 8 8 8 9 10 11 10 9 8 5 2 3 4 4 5 6 7 7 7 6 6 6 8 11 11 11 11 11 10 10 8 9 9 10 11 11
4 10 13 14 15 13 12 9 9 9 9 10 11 11 10 9 7 3 3 4 4 4 5 5 5 5 6 5 7 10 11 10 9 10 10 10 9 9 9 9 10 11 9
10 11 11 13 14 14 13 11 9 9 9 9 10 11 10 9 9 7 3 3 4 4 4 4 4 5 5 5 6 9 11 10 10 9 10 10 8 8 9 10 10 11 10
10 9 10 14 16 16 14 13 11 9 8 9 10 11 11 10 10 8 5 3 4 4 4 3 3 4 5 5 5 8 11 10 9 10 10 9 9 8 9 9 9 10 10
2 1 5 11 14 15 15 15 13 11 10 9 9 10 11 11 10 9 8 4 4 4 5 4 3 4 5 5 5 7 10 10 10 10 10 10 9 8 8 8 8 8 10
-6 -5 -0 -0 2 6 11 14 14 13 11 10 9 10 11 11 11 10 9 6 5 5 5 5 3 4 5 5 5 7 9 10 10 9 10 10 9 7 8 7 7 7 8
-5 -5 -5 -5 -5 -7 -3 7 14 14 13 11 10 10 9 10 11 11 11 9 6 6 6 6 4 4 5 5 5 6 9 10 9 9 10 10 9 9 7 8 8 7 8
-7 -7 -7 -7 -7 -6 -6 -4 10 14 13 13 12 10 10 9 10 11 11 10 8 6 6 6 5 4 5 6 5 5 8 10 10 10 9 10 8 9 9 7 7 7 7
-8 -8 -8 -8 -7 -7 -6 -6 -5 3 9 11 12 13 11 11 9 10 11 11 10 7 5 6 6 5 5 6 6 5 6 10 10 10 9 11 10 9 9 8 7 8 7
-8 -8 -9 -9 -10 -10 -10 -8 -6 -7 -7 -2 7 13 13 12 11 10 10 11 11 9 6 6 6 6 5 6 7 7 6 9 10 9 9 9 10 9 9 9 8 8 8
-7 -7 -8 -9 -9 -10 -11 -11 -11 -9 -7 -7 4 11 13 14 13 12 11 11 10 10 8 7 7 8 6 7 7 9 9 8 9 8 8 8 10 9 9 9 9 9 8
-7 -7 -7 -8 -8 -9 -9 -10 -10 -10 -10 -7 -5 2 9 12 13 13 13 11 10 10 10 8 7 8 8 7 7 8 9 9 9 7 8 9 8 8 8 8 8 8 9
-5 -6 -6 -6 -7 -7 -7 -7 -8 -8 -7 -8 -5 -5 -3 2 11 13 13 13 12 11 10 10 8 8 8 7 8 7 9 9 7 9 8 8 9 9 8 8 8 8 8
-4 -5 -5 -5 -5 -5 -6 -6 -6 -6 -7 -6 -6 -4 -3 -1 6 11 13 13 13 13 12 11 10 9 9 8 8 8 9 9 10 9 9 9 8 9 9 9 9 9 8
-4 -4 -4 -5 -5 -5 -5 -5 -6 -5 -4 -5 -5 -4 -2 -2 -1 7 12 11 12 13 13 12 10 10 10 10 9 10 9 9 10 9 9 9 9 9 9 9 9 9 9
-4 -4 -4 -4 -4 -4 -4 -4 -4 -3 -3 -2 -1 -3 -2 -1 -1 -1 7 11 12 12 9 13 13 10 11 11 10 12 11 11 10 10 9 9 9 9 9 9 9 9 9
-4 -4 -4 -4 -4 -4 -4 -4 -4 -3 -2 -1 -0 1 -1 1 1 1 2 8 11 12 13 8 13 11 10 12 11 11 12 12 11 10 10 9 9 9 9 10 9 10 10
-4 -3 -3 -3 -4 -4 -4 -4 -4 -3 -2 -1 -0 1 2 1 2 2 1 1 6 8 12 12 11 12 10 12 11 11 12 10 11 11 9 9 10 10 9 10 9 10 10
-3 -3 -3 -3 -4 -4 -4 -4 -3 -3 -2 -2 -1 0 1 1 1 2 2 1 4 5 6 10 11 10 11 10 11 11 12 11 10 9 10 10 9 10 10 10 10 10 10
-4 -4 -3 -3 -4 -4 -4 -4 -4 -3 -3 -2 -2 -1 -1 1 1 1 2 2 4 5 2 7 8 8 11 12 11 11 11 12 11 10 9 9 9 9 9 10 9 10 10